Date String (YYYY-MM-DD hh:mm:ss) UTC,Instrument flags,Ambient pressure (hPa),Sample flow (lpm),Bypass flow (lpm),Sample temperature (°C),Ambient temperature (°C),ASC tube jacket temperature (°C),LED temperature (°C),Box temperature (°C),Sample RH (%),Span deviation,Mass concentration (μg/m³),Mass concentration (μg/m³),Mass concentration (μg/m³)
DateTimeUTC,F1_M11,P_M11,Q1_M11,Q2_M11,T1_M11,T2_M11,T3_M11,T4_M11,T5_M11,U1_M11,ZSPAN_M11,X0_M11,X2_M11,X1_M11
2022-11-03 20:00:00,,0819.4,5.01,0.00,25.1,23.6,00.0,33.9,27.0,11.9,0000.0,0013.69,0004.31,0003.43
2022-11-03 20:01:00,,0819.4,5.01,0.00,25.1,23.6,00.0,33.9,27.0,12.0,0000.0,0015.52,0004.30,0003.43
2022-11-03 20:02:00,,0819.4,5.00,0.00,25.1,23.6,00.0,33.9,27.0,12.0,0000.0,0015.34,0004.30,0003.44
2022-11-03 20:03:00,,0819.5,5.00,0.00,25.1,23.6,00.0,33.9,27.0,11.8,0000.0,0015.55,0004.35,0003.45
2022-11-03 20:04:00,,0819.5,5.00,0.00,25.1,23.6,00.0,33.9,27.0,11.8,0000.0,0015.99,0004.38,0003.46
2022-11-03 20:05:00,,0819.6,4.99,0.00,25.1,23.6,00.0,33.9,27.0,11.8,0000.0,0016.14,0004.37,0003.47
2022-11-03 20:06:00,,0819.5,5.00,0.00,25.1,23.6,00.0,33.9,27.0,11.8,0000.0,0015.96,0004.39,0003.49
2022-11-03 20:07:00,,0819.5,5.00,0.00,25.1,23.5,00.0,33.9,27.0,11.7,0000.0,0015.00,0004.37,0003.50
2022-11-03 20:08:00,,0819.4,5.02,0.00,25.1,23.5,00.0,33.9,26.9,11.7,0000.0,0014.35,0004.36,0003.53
2022-11-03 20:09:00,,0819.4,5.01,0.00,25.0,23.5,00.0,33.9,26.9,11.6,0000.0,0013.84,0004.35,0003.53
2022-11-03 20:10:00,,0819.3,5.00,0.00,25.0,23.4,00.0,33.9,26.9,11.7,0000.0,0014.31,0004.37,0003.54
2022-11-03 20:11:00,,0819.3,5.00,0.00,25.0,23.3,00.0,33.9,26.9,11.7,0000.0,0014.53,0004.38,0003.56
2022-11-03 20:12:00,,0819.3,5.00,0.00,25.0,23.4,00.0,33.9,26.8,11.8,0000.0,0013.52,0004.41,0003.58
2022-11-03 20:13:00,,0819.4,5.00,0.00,25.0,23.3,00.0,33.8,26.8,11.8,0000.0,0013.85,0004.41,0003.58
2022-11-03 20:14:00,,0819.4,5.00,0.00,24.9,23.2,00.0,33.8,26.8,11.8,0000.0,0013.68,0004.47,0003.59
2022-11-03 20:15:00,,0819.4,5.00,0.00,24.9,23.3,00.0,33.8,26.8,11.8,0000.0,0014.97,0004.50,0003.60
2022-11-03 20:16:00,,0819.4,5.00,0.00,24.9,23.3,00.0,33.8,26.8,11.8,0000.0,0015.22,0004.56,0003.61
2022-11-03 20:17:00,,0819.4,5.00,0.00,24.9,23.3,00.0,33.8,26.8,11.8,0000.0,0015.55,0004.57,0003.62
2022-11-03 20:18:00,,0819.4,5.00,0.00,24.9,23.3,00.0,33.8,26.8,11.8,0000.0,0017.19,0004.58,0003.63
2022-11-03 20:19:00,,0819.4,5.00,0.00,24.9,23.4,00.0,33.8,26.8,11.8,0000.0,0018.47,0004.60,0003.62
2022-11-03 20:20:00,,0819.4,5.01,0.00,24.9,23.4,00.0,33.8,26.8,11.7,0000.0,0018.68,0004.59,0003.62
2022-11-03 20:21:00,,0819.4,4.98,0.00,24.9,23.3,00.0,33.8,26.8,11.7,0000.0,0018.15,0004.56,0003.62
2022-11-03 20:22:00,,0819.4,5.01,0.00,24.9,23.3,00.0,33.7,26.8,11.7,0000.0,0017.98,0004.56,0003.61
2022-11-03 20:23:00,,0819.4,5.01,0.00,24.9,23.3,00.0,33.7,26.8,11.6,0000.0,0017.30,0004.55,0003.61
2022-11-03 20:24:00,,0819.4,4.99,0.00,24.9,23.3,00.0,33.7,26.8,11.7,0000.0,0016.74,0004.50,0003.60
2022-11-03 20:25:00,,0819.4,4.99,0.00,24.9,23.2,00.0,33.7,26.7,11.7,0000.0,0016.68,0004.41,0003.58
2022-11-03 20:26:00,,0819.4,5.01,0.00,24.9,23.2,00.0,33.7,26.7,11.7,0000.0,0015.34,0004.39,0003.57
2022-11-03 20:27:00,,0819.4,5.00,0.00,24.8,23.2,00.0,33.7,26.7,11.7,0000.0,0014.86,0004.35,0003.56
2022-11-03 20:28:00,,0819.3,4.99,0.00,24.8,23.2,00.0,33.7,26.7,11.7,0000.0,0014.48,0004.34,0003.56
2022-11-03 20:29:00,,0819.3,5.01,0.00,24.8,23.2,00.0,33.7,26.7,11.7,0000.0,0013.70,0004.38,0003.55
2022-11-03 20:30:00,,0819.2,5.00,0.00,24.8,23.2,00.0,33.7,26.7,11.7,0000.0,0012.58,0004.34,0003.55
2022-11-03 20:31:00,,0819.3,4.99,0.00,24.8,23.2,00.0,33.7,26.7,11.7,0000.0,0012.49,0004.36,0003.55
2022-11-03 20:32:00,,0819.2,5.00,0.00,24.8,23.2,00.0,33.7,26.7,11.7,0000.0,0013.15,0004.39,0003.55
2022-11-03 20:33:00,,0819.2,5.00,0.00,24.8,23.2,00.0,33.7,26.7,11.6,0000.0,0012.38,0004.39,0003.55
2022-11-03 20:34:00,,0819.2,5.01,0.00,24.8,23.1,00.0,33.6,26.6,11.7,0000.0,0011.79,0004.36,0003.54
2022-11-03 20:35:00,,0819.3,5.00,0.00,24.8,23.1,00.0,33.6,26.6,11.7,0000.0,0011.67,0004.37,0003.54
2022-11-03 20:36:00,,0819.3,5.00,0.00,24.7,23.1,00.0,33.6,26.6,11.8,0000.0,0011.74,0004.37,0003.54
2022-11-03 20:37:00,,0819.3,5.00,0.00,24.7,23.1,00.0,33.6,26.6,11.7,0000.0,0011.49,0004.35,0003.54
2022-11-03 20:38:00,,0819.4,5.00,0.00,24.7,23.2,00.0,33.6,26.6,11.8,0000.0,0011.74,0004.34,0003.54
2022-11-03 20:39:00,,0819.4,5.00,0.00,24.7,23.2,00.0,33.6,26.6,11.8,0000.0,0011.86,0004.34,0003.53
2022-11-03 20:40:00,,0819.4,5.00,0.00,24.7,23.2,00.0,33.6,26.6,11.7,0000.0,0011.92,0004.28,0003.52
2022-11-03 20:41:00,,0819.4,5.00,0.00,24.7,23.2,00.0,33.6,26.6,11.7,0000.0,0012.66,0004.30,0003.52
2022-11-03 20:42:00,,0819.4,5.00,0.00,24.7,23.2,00.0,33.6,26.6,11.7,0000.0,0012.51,0004.28,0003.52
2022-11-03 20:43:00,,0819.4,5.00,0.00,24.7,23.3,00.0,33.6,26.7,11.7,0000.0,0011.58,0004.23,0003.52
2022-11-03 20:44:00,,0819.4,5.01,0.00,24.8,23.3,00.0,33.6,26.7,11.8,0000.0,0011.65,0004.24,0003.52
2022-11-03 20:45:00,,0819.4,4.98,0.00,24.7,23.3,00.0,33.6,26.7,11.8,0000.0,0011.38,0004.24,0003.52
2022-11-03 20:46:00,,0819.4,5.01,0.00,24.7,23.3,00.0,33.6,26.7,11.7,0000.0,0011.24,0004.24,0003.52
2022-11-03 20:47:00,,0819.4,5.00,0.00,24.8,23.3,00.0,33.5,26.7,11.7,0000.0,0011.83,0004.25,0003.52
2022-11-03 20:48:00,,0819.4,5.00,0.00,24.8,23.3,00.0,33.5,26.7,11.7,0000.0,0012.71,0004.23,0003.54
2022-11-03 20:49:00,,0819.4,4.99,0.00,24.7,23.3,00.0,33.6,26.7,11.8,0000.0,0012.56,0004.26,0003.54
2022-11-03 20:50:00,,0819.4,5.00,0.00,24.7,23.3,00.0,33.6,26.7,11.8,0000.0,0013.13,0004.24,0003.54
2022-11-03 20:51:00,,0819.4,4.99,0.00,24.8,23.4,00.0,33.6,26.7,11.8,0000.0,0012.90,0004.24,0003.54
2022-11-03 20:52:00,,0819.4,5.01,0.00,24.8,23.4,00.0,33.6,26.7,11.7,0000.0,0012.31,0004.24,0003.54
2022-11-03 20:53:00,,0819.3,5.00,0.00,24.7,23.3,00.0,33.6,26.6,11.7,0000.0,0012.24,0004.23,0003.54
2022-11-03 20:54:00,,0819.2,4.99,0.00,24.7,23.3,00.0,33.6,26.6,11.7,0000.0,0012.37,0004.25,0003.54
2022-11-03 20:55:00,,0819.3,5.01,0.00,24.7,23.3,00.0,33.6,26.6,11.7,0000.0,0012.93,0004.21,0003.54
2022-11-03 20:56:00,,0819.3,5.01,0.00,24.7,23.3,00.0,33.6,26.6,11.7,0000.0,0013.33,0004.20,0003.54
2022-11-03 20:57:00,,0819.3,5.00,0.00,24.7,23.3,00.0,33.6,26.6,11.7,0000.0,0013.64,0004.19,0003.55
2022-11-03 20:58:00,,0819.3,5.01,0.00,24.7,23.3,00.0,33.5,26.7,11.7,0000.0,0013.33,0004.21,0003.56
2022-11-03 20:59:00,,0819.3,5.00,0.00,24.7,23.3,00.0,33.5,26.7,11.7,0000.0,0012.21,0004.27,0003.56
